Wind_Speed
10 10 10 11 11 10 10 10 10 10 10 10 10 11 12 13 12 13 12 12 13 14 14 14 14 14 14 14 14 14 14 15 15 15 15 16 14 14 16 17 16 16 17
11 11 11 11 11 11 11 11 11 11 10 10 11 11 11 11 12 12 12 13 13 13 14 14 14 15 15 15 14 15 15 16 16 15 15 16 16 15 16 16 17 17 17
10 11 11 11 12 12 12 12 11 10 10 11 12 12 11 11 12 12 13 13 13 13 13 14 15 15 16 16 15 15 15 16 17 17 16 16 17 17 17 17 17 17 17
10 10 11 11 11 12 12 12 12 11 11 12 12 12 12 12 12 13 13 14 14 14 13 14 15 15 14 15 15 16 16 16 17 17 17 18 18 18 18 18 18 18 17
12 11 11 11 11 12 12 12 12 12 12 12 13 13 13 13 14 14 14 14 14 14 14 14 14 13 13 13 15 15 16 16 15 16 16 17 18 19 19 20 20 19 18
12 13 13 13 13 13 13 13 12 12 12 13 13 13 14 14 15 15 14 14 14 13 13 13 13 13 13 14 14 14 15 15 15 16 16 17 17 18 19 20 20 20 20
13 13 13 14 14 13 13 13 12 13 13 13 14 14 14 15 15 15 14 14 13 13 12 13 14 13 13 13 14 14 15 16 16 16 17 17 17 18 18 19 20 20 21
13 13 13 14 13 14 14 14 14 14 14 13 14 14 15 15 15 15 15 14 13 13 13 13 13 13 12 12 14 14 16 16 17 17 17 16 17 18 19 19 19 20 20
14 14 14 13 13 14 13 14 14 14 14 14 14 15 15 15 15 14 15 14 14 14 14 14 14 14 13 13 14 15 16 17 17 17 17 16 16 18 18 19 20 21 21
14 15 14 14 13 13 14 14 14 14 15 15 15 15 15 15 14 14 14 15 15 15 15 15 14 14 14 14 15 15 16 17 17 17 17 17 17 18 18 19 20 21 21
14 14 14 14 13 13 13 14 14 14 14 14 15 15 14 14 13 13 14 14 15 15 15 15 15 15 15 15 16 16 15 16 16 17 17 17 17 17 18 19 20 20 21
14 13 14 14 14 13 13 14 14 14 14 14 14 14 14 14 13 13 14 15 15 15 16 16 15 16 16 16 16 16 16 16 16 16 16 16 16 17 17 18 19 20 21
14 14 14 14 14 14 14 14 14 14 14 14 14 14 14 14 14 13 14 15 16 15 16 16 16 16 16 16 16 16 16 16 16 17 16 16 16 16 17 18 19 20 21
14 14 14 14 14 13 13 13 13 14 14 14 14 14 13 14 15 14 14 15 15 15 15 16 16 17 17 17 16 16 16 16 16 16 16 16 16 16 17 18 19 20 21
15 15 14 13 13 13 14 14 15 14 14 13 13 13 14 14 15 15 15 15 15 15 15 15 15 16 16 16 16 16 15 15 15 16 16 16 16 16 17 18 19 19 20
14 14 14 14 14 14 15 14 14 14 14 13 13 14 14 15 15 15 15 15 15 15 15 15 15 15 15 15 15 15 15 16 16 16 16 16 16 17 17 18 19 19 20
14 14 14 14 14 14 14 13 13 13 13 13 14 14 14 15 16 16 16 16 15 15 15 15 14 15 15 15 15 16 16 16 16 15 16 17 17 17 16 17 18 19 21
13 13 13 13 13 13 13 13 13 14 14 14 14 14 15 15 15 16 16 16 15 15 16 15 15 15 15 15 16 16 16 16 16 15 16 17 17 18 17 17 18 19 21
13 13 13 13 13 13 13 14 14 14 14 14 14 15 15 15 15 16 16 16 16 16 16 15 14 15 15 15 16 16 16 17 16 16 16 16 16 17 18 18 19 19 20
13 13 12 13 14 14 13 13 14 13 13 13 14 14 15 15 15 16 16 16 16 16 15 15 14 14 14 15 15 16 16 16 17 17 17 17 17 17 18 19 20 20 21
13 13 12 13 14 14 13 14 13 13 13 13 14 14 14 14 14 15 16 16 15 15 14 14 14 14 15 15 15 16 16 17 17 17 17 17 18 19 19 19 20 21 21
14 14 13 13 14 14 14 14 14 14 14 14 14 15 14 14 14 15 15 14 13 13 13 13 14 14 15 15 15 15 16 17 17 17 18 18 19 19 19 20 20 21 21
14 13 13 13 13 14 13 13 13 13 14 14 14 14 15 15 15 15 14 13 13 12 13 14 14 15 15 15 16 16 16 16 16 17 18 19 19 19 20 21 21 22 22
13 13 14 14 14 13 13 13 13 13 13 14 14 14 15 15 15 14 14 14 14 14 14 15 15 15 16 16 16 16 16 16 16 17 18 19 19 20 21 22 22 22 22
14 14 14 14 13 13 13 13 12 13 14 14 15 15 15 15 15 15 15 14 14 15 15 15 15 16 16 16 17 16 16 16 17 18 18 19 20 21 21 22 23 22 21
14 14 13 13 13 13 13 13 13 13 14 15 15 15 15 15 15 15 15 15 15 16 15 15 15 16 16 16 16 16 16 17 17 18 19 20 20 21 22 22 22 21 20
Wind_Direction
274 272 271 274 273 270 267 268 271 269 268 266 265 264 267 267 268 268 266 267 268 266 264 264 266 267 268 269 270 268 266 265 267 266 263 258 256 251 248 252 251 248 248
276 275 272 271 272 270 269 268 271 271 267 266 268 268 268 268 268 269 268 269 270 267 265 265 266 268 270 269 269 268 267 267 265 265 262 257 255 255 254 254 253 251 252
276 279 276 272 271 272 272 271 273 271 269 269 270 268 270 270 268 268 271 273 275 273 268 267 267 269 272 271 271 272 270 268 266 265 261 258 255 254 254 254 255 254 253
273 277 279 276 276 275 275 274 276 274 273 271 271 272 270 268 270 269 270 273 275 276 274 272 270 271 273 273 275 275 274 273 268 264 263 262 259 254 253 255 255 255 253
271 275 278 279 281 281 279 276 277 275 274 272 274 274 273 272 272 272 272 272 274 276 274 274 276 274 276 279 281 278 275 274 270 267 266 265 264 259 255 254 255 254 254
274 275 278 278 282 282 279 276 277 273 273 273 274 273 273 275 273 273 272 272 273 274 276 272 273 277 276 279 281 278 274 273 273 270 268 267 267 263 257 256 255 255 254
274 276 277 279 281 279 275 273 273 272 272 272 271 272 273 275 275 273 272 270 271 273 275 275 274 275 275 277 278 276 274 273 274 274 272 268 268 265 260 260 257 254 254
273 278 277 280 283 278 273 272 271 273 273 274 273 272 274 275 275 274 272 272 272 275 276 276 273 271 274 276 278 278 276 275 274 274 275 269 268 265 261 259 256 256 257
277 278 282 282 282 280 279 274 272 273 275 276 275 275 275 274 272 272 272 272 273 276 275 275 272 271 273 277 279 280 277 277 276 274 273 270 268 265 260 258 256 257 258
279 280 281 282 283 281 283 279 278 278 276 277 277 277 277 275 273 272 272 271 273 273 274 276 275 272 275 277 279 281 279 280 279 276 273 269 267 265 261 260 259 258 259
282 282 280 279 280 281 285 285 284 283 282 278 277 278 279 277 274 272 272 272 272 272 274 276 276 275 275 276 279 281 283 285 283 277 273 271 268 265 264 263 262 261 260
278 280 278 278 281 282 284 286 286 284 282 280 281 279 277 275 276 275 275 275 277 277 274 272 272 272 273 276 281 282 283 284 284 279 274 271 267 266 266 267 264 262 263
276 277 279 281 282 283 284 285 288 284 281 280 282 277 277 277 278 277 277 278 280 278 274 274 273 274 274 277 280 282 284 286 284 281 277 274 268 269 268 268 267 266 266
280 279 281 280 281 280 281 285 288 284 282 279 278 277 279 282 281 281 278 279 279 277 275 276 276 277 278 277 280 282 285 287 285 282 278 277 274 273 270 271 271 271 269
280 281 282 282 280 281 283 285 288 284 282 279 277 277 279 282 282 282 281 279 278 278 278 277 278 277 279 279 280 281 284 286 285 281 278 278 281 278 274 273 273 273 272
279 281 280 281 282 282 283 283 285 283 280 278 277 278 279 280 280 280 281 281 279 279 278 279 282 282 282 280 280 281 283 284 284 282 281 281 283 283 278 274 275 274 274
282 281 279 278 279 281 282 283 284 282 278 278 278 278 279 280 281 282 283 282 282 282 280 279 283 286 285 283 282 282 281 282 284 281 282 282 282 283 282 279 277 277 277
284 281 279 276 276 279 283 285 288 283 278 276 276 276 278 280 282 282 284 283 282 283 283 283 283 284 285 284 283 282 281 282 282 280 281 282 284 286 284 284 282 281 281
283 283 279 279 280 280 281 285 287 284 279 276 274 275 276 279 282 283 284 284 282 283 284 282 281 282 284 284 282 282 282 282 282 282 284 285 287 289 288 287 288 287 285
287 284 284 284 285 283 282 285 287 285 278 276 275 276 276 279 281 283 285 286 284 283 281 280 281 281 283 284 284 283 283 283 283 284 285 287 288 292 293 293 293 291 289
288 286 283 284 285 283 283 286 286 285 281 279 279 278 277 280 282 284 287 289 285 281 279 278 281 284 285 285 285 285 284 284 286 286 285 287 290 291 293 294 295 295 293
285 286 286 284 284 283 283 284 283 284 282 281 282 280 278 277 281 285 288 289 284 280 279 279 283 287 288 287 284 285 288 286 287 286 286 289 293 293 293 294 296 296 295
280 282 286 286 286 286 285 283 285 285 282 282 282 279 279 280 282 286 287 287 283 285 282 281 284 286 288 287 283 283 287 290 289 290 290 291 291 295 297 296 297 296 295
279 283 286 287 287 287 287 285 283 284 282 282 280 280 282 283 283 284 284 285 284 283 284 281 282 286 289 286 283 284 286 289 290 292 295 294 293 295 298 299 299 299 297
282 284 284 282 283 288 289 288 286 284 282 281 284 283 284 283 283 284 283 284 283 284 284 282 283 286 289 286 284 284 285 289 291 292 294 295 295 295 297 298 298 298 298
283 283 280 278 280 285 287 287 286 287 285 284 284 284 284 282 282 282 282 283 283 283 284 286 287 288 289 286 283 283 285 290 291 293 295 297 298 298 297 298 297 298 297
Height
5853 5854 5854 5854 5855 5855 5855 5855 5856 5856 5857 5857 5858 5858 5858 5858 5858 5858 5859 5859 5859 5859 5859 5860 5860 5861 5861 5861 5862 5862 5862 5862 5863 5864 5864 5865 5866 5867 5869 5870 5871 5872 5874
5851 5851 5851 5852 5852 5852 5853 5853 5854 5854 5855 5855 5855 5855 5856 5856 5856 5856 5856 5856 5856 5856 5857 5857 5857 5858 5858 5859 5859 5859 5859 5859 5860 5861 5861 5862 5863 5864 5865 5866 5868 5869 5870
5848 5849 5849 5849 5849 5850 5850 5851 5851 5852 5852 5853 5853 5853 5853 5853 5853 5853 5853 5853 5853 5853 5854 5854 5854 5855 5855 5856 5856 5856 5856 5856 5856 5857 5858 5858 5859 5861 5862 5863 5864 5865 5866
5846 5846 5847 5847 5847 5847 5848 5848 5848 5849 5849 5850 5850 5850 5850 5850 5851 5851 5851 5851 5851 5851 5851 5851 5851 5852 5852 5852 5853 5853 5853 5853 5853 5853 5854 5855 5855 5856 5858 5859 5860 5861 5862
5844 5844 5844 5844 5844 5845 5845 5845 5846 5846 5846 5847 5847 5847 5847 5848 5848 5848 5848 5848 5848 5848 5848 5848 5848 5848 5849 5849 5849 5849 5849 5849 5849 5850 5850 5851 5851 5852 5853 5855 5856 5857 5858
5841 5842 5842 5842 5842 5842 5842 5842 5843 5843 5843 5844 5844 5844 5844 5844 5844 5844 5844 5845 5845 5845 5845 5845 5845 5845 5845 5845 5845 5845 5845 5846 5846 5846 5846 5846 5847 5847 5848 5850 5851 5852 5853
5839 5839 5839 5840 5839 5839 5839 5839 5840 5840 5840 5840 5841 5841 5841 5840 5840 5841 5841 5841 5841 5841 5842 5842 5842 5842 5842 5842 5842 5842 5842 5841 5842 5842 5842 5842 5843 5843 5844 5845 5846 5847 5849
5836 5837 5837 5837 5836 5836 5836 5836 5836 5836 5837 5837 5837 5837 5837 5838 5837 5837 5837 5837 5838 5838 5838 5838 5839 5839 5839 5839 5838 5838 5838 5838 5837 5837 5837 5837 5838 5839 5839 5840 5841 5843 5844
5834 5834 5834 5834 5833 5833 5833 5833 5833 5833 5833 5833 5833 5833 5833 5833 5833 5833 5833 5833 5834 5834 5835 5835 5835 5835 5835 5835 5835 5834 5833 5833 5833 5832 5832 5833 5833 5834 5835 5835 5837 5838 5839
5831 5831 5831 5830 5830 5830 5830 5829 5829 5829 5829 5829 5828 5828 5829 5829 5829 5829 5829 5829 5829 5830 5830 5831 5831 5831 5832 5831 5831 5830 5829 5829 5828 5828 5828 5828 5828 5829 5830 5831 5832 5833 5834
5828 5827 5827 5827 5827 5827 5826 5826 5826 5825 5825 5825 5824 5824 5824 5825 5825 5825 5825 5825 5825 5826 5826 5827 5827 5827 5827 5827 5827 5826 5825 5824 5824 5823 5823 5823 5823 5824 5825 5825 5826 5827 5828
5824 5824 5824 5824 5823 5823 5823 5822 5822 5821 5821 5821 5820 5820 5820 5821 5821 5821 5821 5821 5821 5822 5822 5822 5823 5823 5823 5823 5822 5822 5821 5820 5819 5819 5818 5818 5818 5819 5820 5820 5821 5822 5823
5821 5821 5820 5820 5820 5819 5819 5819 5818 5817 5817 5817 5817 5817 5817 5817 5817 5817 5817 5817 5817 5818 5818 5818 5818 5818 5818 5818 5818 5817 5816 5816 5815 5814 5814 5813 5814 5814 5814 5815 5815 5816 5817
5817 5817 5817 5817 5816 5816 5816 5815 5815 5814 5814 5814 5814 5813 5813 5814 5813 5813 5813 5813 5814 5814 5814 5814 5814 5814 5814 5814 5813 5813 5812 5811 5810 5809 5809 5809 5808 5808 5809 5809 5810 5810 5810
5814 5813 5813 5813 5813 5813 5812 5812 5811 5811 5810 5810 5810 5810 5810 5810 5810 5810 5810 5810 5810 5810 5810 5810 5810 5810 5809 5809 5809 5808 5808 5807 5806 5805 5804 5804 5804 5803 5804 5804 5804 5804 5804
5810 5809 5809 5809 5809 5809 5809 5808 5807 5807 5807 5807 5806 5806 5806 5806 5806 5806 5806 5806 5806 5806 5806 5806 5806 5805 5805 5804 5804 5804 5803 5802 5802 5801 5800 5800 5800 5799 5799 5799 5799 5798 5798
5806 5806 5806 5805 5805 5805 5804 5804 5804 5803 5803 5803 5803 5803 5803 5802 5802 5802 5802 5802 5802 5802 5802 5802 5801 5800 5800 5800 5799 5799 5799 5798 5798 5797 5797 5796 5795 5795 5794 5794 5793 5793 5792
5802 5802 5802 5802 5801 5801 5801 5800 5800 5799 5799 5799 5799 5799 5799 5798 5798 5798 5798 5798 5798 5797 5797 5797 5797 5796 5796 5795 5795 5794 5794 5794 5793 5793 5793 5792 5791 5790 5789 5789 5788 5787 5786
5799 5799 5799 5798 5798 5797 5797 5797 5796 5795 5795 5795 5795 5795 5795 5794 5794 5794 5794 5793 5793 5793 5793 5792 5792 5792 5791 5791 5790 5790 5789 5789 5789 5788 5788 5787 5787 5786 5784 5783 5782 5781 5780
5796 5795 5795 5795 5794 5794 5793 5792 5792 5791 5790 5791 5791 5791 5791 5790 5790 5790 5789 5789 5789 5788 5788 5788 5788 5787 5787 5786 5786 5785 5785 5784 5784 5784 5783 5783 5782 5781 5780 5778 5777 5775 5773
5792 5792 5791 5791 5790 5789 5789 5788 5787 5787 5787 5787 5787 5787 5787 5787 5786 5786 5785 5785 5784 5784 5783 5783 5783 5783 5782 5782 5781 5781 5780 5780 5779 5779 5779 5778 5777 5776 5774 5773 5771 5769 5767
5789 5788 5787 5787 5786 5785 5784 5783 5783 5782 5782 5783 5783 5783 5783 5783 5783 5782 5781 5781 5780 5780 5780 5780 5779 5779 5778 5778 5777 5776 5776 5775 5775 5775 5773 5773 5771 5770 5769 5767 5765 5763 5761
5785 5784 5784 5783 5782 5781 5780 5779 5779 5778 5779 5779 5779 5779 5779 5779 5778 5778 5777 5777 5777 5776 5776 5776 5775 5775 5774 5773 5772 5772 5771 5770 5770 5769 5768 5767 5766 5765 5763 5761 5759 5757 5755
5781 5781 5780 5779 5778 5777 5776 5776 5775 5775 5776 5776 5776 5775 5775 5775 5774 5774 5774 5773 5773 5772 5772 5771 5771 5770 5769 5768 5768 5767 5767 5766 5765 5764 5763 5762 5761 5759 5757 5755 5753 5751 5748
5777 5777 5776 5776 5775 5774 5773 5773 5772 5773 5773 5773 5772 5772 5772 5771 5771 5770 5770 5769 5769 5768 5767 5767 5766 5766 5765 5764 5763 5763 5762 5762 5761 5760 5759 5757 5755 5753 5751 5749 5747 5745 5743
5773 5773 5772 5772 5772 5771 5771 5770 5770 5770 5770 5770 5769 5768 5768 5767 5767 5766 5766 5765 5765 5764 5763 5763 5762 5762 5761 5760 5759 5758 5758 5757 5756 5755 5754 5752 5750 5747 5746 5744 5741 5739 5737